Accueil
METAR-TAF:

METAR-TAF

Aéroports :

Meiringen, Suisse

latitude: 46-44-25N, longitude: 8-06-36E, altitude: 577 m

Observation

Le bulletin a été fait il y a 37 minutes, à 14:50 UTC
Vent 3 kt de ouest, variant entre sud-ouest et nord/nord-ouest
Température 14°C
Humidité 67%
Pression 1026 hPa
Visibilité 10 km ou plus
Nuages fragmentés à une hauteur de 8500 ft

METAR: LSMM 191450Z 28003KT 220V330 9999 BKN085 14/08 Q1026 RMK BLU

Heure: 17:27 (15:27 UTC)


TAF: absent

Observations et prévisions météorologiques de plus de 4000 aéroports (messages METAR et TAF).

Les stations disponibles sont représentées par des disques jaunes et rouges sur la carte.

Passer la souris dessus pour voir le nom de la station.

Cliquer dessus pour voir les observations et prévisions météorologiques.

Pour changer de carte: cliquez sur les boutons verts avec une croix noire pour zoomer, sur le bouton vert avec un tiret pour effectuer un zoom arrière, ou sur les flèches vertes pour les cartes adjacentes.


METAR-TAF: